Regional Weather Roundup
Issued by NWS

Home | Current Version | Previous Version | Text Only | Print | Product List | Glossary On
Versions: 1 2 3 4 5 6 7 8 9 10 11 12 13 14 15 16 17 18 19 20 21 22 23 24 25 26 27 28 29 30 31 32 33 34 35 36 37 38 39 40 41 42 43 44 45 46 47 48 49 50
000
ASUS45 KSLC 301710
RWRUT

UTAH REGIONAL WEATHER ROUNDUP
NATIONAL WEATHER SERVICE SALT LAKE CITY UT
1100 AM MDT THU MAR 30 2017

UTZ001>011-023>025-301800-

NORTHERN UTAH

CITY           SKY/WX    TMP DP  RH WIND       PRES   REMARKS
BRIGHAM CITY   CLOUDY    42  38  86 SE9       29.76F
DUGWAY         CLOUDY    52  36  54 S5        29.68F
HILL AFB       LGT RAIN  43  41  93 N9        29.73F
LOGAN          RAIN      44  39  82 SE9       29.76F
OGDEN          LGT RAIN  43  40  89 NE12      29.73F
SALT LAKE CITY PTSUNNY   48  42  80 NE16      29.71F
TOOELE VALLEY  CLOUDY    50  43  76 N10       29.71F
WENDOVER       LGT RAIN  46  42  86 E3        29.70F
HEBER CITY     PTSUNNY   54  34  47 SE13G20   29.74F
WEST JORDAN    PTSUNNY   51  50  95 N12       29.73F

$$

UTZ011>015-024>027-301800-

CENTRAL/NORTHEAST UTAH

CITY           SKY/WX    TMP DP  RH WIND       PRES   REMARKS
PROVO AIRPORT  MOSUNNY   59  38  45 S7        29.70F
MOAB/CANYONLAN MOSUNNY   59  26  28 E10       29.79F
DELTA          CLOUDY    52  34  50 S8        29.71F
PRICE          MOSUNNY   50  30  46 SE6       29.82F
RICHFIELD      CLOUDY    54  32  43 CALM      29.77
ROOSEVELT      CLOUDY    52  32  46 N6        29.83F
VERNAL         CLOUDY    51  31  46 CALM      29.81F

$$

UTZ013>016-019>022-027-301800-

SOUTHERN UTAH

CITY           SKY/WX    TMP DP  RH WIND       PRES   REMARKS
BRYCE CANYON   MOSUNNY   49  27  42 SE14      29.89F
CEDAR CITY     MOSUNNY   59  31  34 SW17G28   29.76F
MILFORD        CLOUDY    51  33  50 S9        29.74F
ST GEORGE      PTSUNNY   60  34  37 NW8       29.75F
HANKSVILLE     PTSUNNY   57  25  28 SE3       29.81F
KANAB          SUNNY     59  28  31 SW8       29.88
BLANDING       PTSUNNY   52  22  31 S8        29.98F

$$

REGIONAL REPORTS     COLORADO/ARIZONA

CITY           SKY/WX    TMP DP  RH WIND       PRES   REMARKS
CRAIG, CO      CLOUDY    48  27  44 CALM      29.85F
GRAND JUNCTION CLOUDY    52  30  43 E10       29.84F
RIFLE, CO      CLOUDY    46  29  51 CALM      29.88F
MONTROSE, CO   CLOUDY    51  26  37 CALM      29.90F
CORTEZ, CO     CLOUDY    54  22  28 VRB5      29.93F
COLORADO CITY    N/A     63  30  29 SE15      29.85F
PAGE, AZ       MOSUNNY   58  28  32 N6        29.83F
GRAND CANYON   MOSUNNY   54  23  30 SW22G31   29.97F
KINGMAN, AZ    SUNNY     72  -1   5 S21G30    29.86F
FLAGSTAFF, AZ  SUNNY     50  23  34 SW14      30.02F

$$

REGIONAL REPORTS    NEVADA/IDAHO/WYOMING

CITY           SKY/WX    TMP DP  RH WIND       PRES   REMARKS
LAS VEGAS, NV  PTSUNNY   74  30  19 S15G23    29.68F
ELY, NY        LGT RAIN  40  35  83 S15       29.76S WCI  32
ELKO, NV       CLOUDY    44  38  79 S8        29.63F
POCATELLO, ID  LGT RAIN  49  41  74 CALM      29.70F
BURLEY, ID     MOSUNNY   51  43  74 E7        29.64F
FORT BRIDGER,  PTSUNNY   47  33  59 N5        29.80F
EVANSTON, WY   LGT RAIN  40  33  76 W16       29.79S WCI  31
ROCK SPRINGS,  CLOUDY    44  36  73 SE5       29.80F
KEMMERER, WY     N/A     41  34  75 SW5       29.79S

$$



USA.gov is the U.S. government's official web portal to all federal, state and local government web resources and services.